Retour au catalogue

STARLINK-36711

ActifCommunicationsVLEO
NORAD 68040·PAYLOAD·🇺🇸 United States

Lancé Mar 2, 2026 depuis Vandenberg Space Force Base

Loading…

Prochains Passages (prochaines 24 heures)

TLE

FraisSource: CelesTrak SupGP

Époque: Sep 15, 2026, 03:38 UTC

1 68040C 26041A   26258.15187500 -.00051875  00000+0 -15325-2 0  2584
2 68040  53.1577 244.7286 0001210  93.1110  63.6426 15.34418958    16

Suivez STARLINK-36711 en temps réel avec AllMySat

Download on the App Store